FW6148 Weather Reports


Display with metric or nautical units.
time (UTC)temp
F
wind
direction
speed
MPH
gust
MPH
rain 1hr
in
rain 24hr
in
rain mn
in
humidity
%
barometer
mb
20260506153037 42 53 6.0 13.0 0.00 0.00 0.00 43 1017.2
20260506152524 42 15 4.0 11.0 0.00 0.00 0.00 44 1017.2
20260506152024 42 61 5.0 11.0 0.00 0.00 0.00 45 1017.2
20260506151537 42 115 4.0 9.0 0.00 0.00 0.00 45 1017.3
20260506151024 41 52 3.0 9.0 0.00 0.00 0.00 43 1017.4
20260506150524 41 0 1.0 7.0 0.00 0.00 0.00 47 1017.3
20260506150036 41 117 2.0 8.0 0.00 0.00 0.00 45 1017.3
20260506145525 41 173 4.0 8.0 0.00 0.00 0.00 45 1017.4
20260506145025 40 360 3.0 6.0 0.00 0.00 0.00 48 1017.5
20260506144543 40 360 3.0 5.0 0.00 0.00 0.00 49 1017.5
20260506144024 39 0 0.0 5.0 0.00 0.00 0.00 48 1017.6
20260506143525 39 360 0.0 4.0 0.00 0.00 0.00 50 1017.6
20260506143039 38 0 1.0 4.0 0.00 0.00 0.00 52 1017.7
20260506142525 38 119 2.0 4.0 0.00 0.00 0.00 51 1017.8
20260506142025 38 360 1.0 4.0 0.00 0.00 0.00 52 1017.7
20260506141538 38 146 0.0 4.0 0.00 0.00 0.00 52 1017.8
20260506141027 37 0 0.0 0.0 0.00 0.00 0.00 54 1017.8
20260506140524 36 0 0.0 0.0 0.00 0.00 0.00 57 1017.8
20260506140038 35 0 0.0 0.0 0.00 0.00 0.00 60 1017.9
20260506135524 33 0 0.0 0.0 0.00 0.00 0.00 65 1017.8
20260506135025 32 0 0.0 0.0 0.00 0.00 0.00 68 1017.8
20260506134535 31 0 0.0 0.0 0.00 0.00 0.00 73 1017.8
20260506134024 30 0 0.0 0.0 0.00 0.00 0.00 74 1017.9
20260506133527 28 0 0.0 0.0 0.00 0.00 0.00 75 1017.8
20260506133040 27 0 0.0 0.0 0.00 0.00 0.00 77 1017.9
20260506132525 25 0 0.0 0.0 0.00 0.00 0.00 80 1017.8
20260506132024 23 0 0.0 0.0 0.00 0.00 0.00 80 1017.8
20260506131554 22 0 0.0 0.0 0.00 0.00 0.00 80 1017.7
20260506131024 21 0 0.0 0.0 0.00 0.00 0.00 80 1017.8
20260506130527 21 0 0.0 0.0 0.00 0.00 0.00 80 1017.8
20260506130041 20 0 0.0 0.0 0.00 0.00 0.00 80 1017.8
20260506125526 20 0 0.0 1.0 0.00 0.00 0.00 81 1017.7
20260506125025 19 0 0.0 3.0 0.00 0.00 0.00 81 1017.6
20260506124538 19 0 0.0 3.0 0.00 0.00 0.00 81 1017.6
20260506124024 18 0 0.0 3.0 0.00 0.00 0.00 80 1017.7
20260506123526 18 360 0.0 2.0 0.00 0.00 0.00 79 1017.6
20260506123038 18 360 1.0 2.0 0.00 0.00 0.00 80 1017.5
20260506122524 18 360 1.0 3.0 0.00 0.00 0.00 80 1017.5
20260506122025 18 0 1.0 3.0 0.00 0.00 0.00 82 1017.6
20260506121542 17 360 1.0 3.0 0.00 0.00 0.00 82 1017.6
20260506121025 17 360 1.0 3.0 0.00 0.00 0.00 84 1017.6
20260506120527 16 0 0.0 0.0 0.00 0.00 0.00 82 1017.4
20260506120040 16 0 0.0 0.0 0.00 0.00 0.00 80 1017.4
20260506115525 17 0 0.0 0.0 0.00 0.00 0.00 81 1017.3
20260506115023 17 0 0.0 0.0 0.00 0.00 0.00 81 1017.2
20260506114538 17 0 0.0 0.0 0.00 0.00 0.00 81 1017.3
20260506114026 16 0 0.0 2.0 0.00 0.00 0.00 81 1017.2
20260506113525 17 0 0.0 2.0 0.00 0.00 0.00 79 1017.2
20260506113038 17 360 0.0 3.0 0.00 0.00 0.00 77 1017.2
20260506112524 18 0 1.0 3.0 0.00 0.00 0.00 79 1017.1
20260506112024 18 360 1.0 3.0 0.00 0.00 0.00 81 1017.2
20260506111538 17 360 1.0 3.0 0.00 0.00 0.00 79 1017.1
20260506111028 18 0 0.0 2.0 0.00 0.00 0.00 77 1017.2
20260506110527 18 0 1.0 2.0 0.00 0.00 0.00 80 1017.2
20260506110041 18 360 1.0 3.0 0.00 0.00 0.00 80 1017.2
20260506105524 18 360 1.0 3.0 0.00 0.00 0.00 79 1017.3
20260506105028 18 360 1.0 4.0 0.00 0.00 0.00 80 1017.3
20260506104547 18 360 1.0 4.0 0.00 0.00 0.00 81 1017.3
20260506104025 18 360 2.0 3.0 0.00 0.00 0.00 82 1017.4
20260506103524 17 360 1.0 3.0 0.00 0.00 0.00 80 1017.2
20260506103040 17 360 0.0 3.0 0.00 0.00 0.00 81 1017.3
20260506102524 18 360 1.0 3.0 0.00 0.00 0.00 78 1017.3
20260506102023 18 0 1.0 4.0 0.00 0.00 0.00 82 1017.4
20260506101538 17 360 1.0 4.0 0.00 0.00 0.00 82 1017.3
20260506101024 17 360 2.0 4.0 0.00 0.00 0.00 80 1017.4
20260506100525 17 0 0.0 0.0 0.00 0.00 0.00 78 1017.3
20260506100045 18 0 0.0 2.0 0.00 0.00 0.00 79 1017.4
20260506095527 18 0 0.0 2.0 0.00 0.00 0.00 80 1017.5
20260506095025 18 360 1.0 3.0 0.00 0.00 0.00 81 1017.4
20260506094554 18 360 1.0 3.0 0.00 0.00 0.00 80 1017.3
20260506094028 18 360 1.0 3.0 0.00 0.00 0.00 79 1017.4
20260506093524 19 360 1.0 3.0 0.00 0.00 0.00 78 1017.3
20260506093041 19 360 1.0 3.0 0.00 0.00 0.00 78 1017.4
20260506092524 19 360 1.0 3.0 0.00 0.00 0.00 79 1017.4
20260506092026 19 360 1.0 4.0 0.00 0.00 0.00 79 1017.4
20260506091539 19 360 2.0 4.0 0.00 0.00 0.00 79 1017.5
20260506091025 19 360 1.0 4.0 0.00 0.00 0.00 79 1017.5
20260506090524 19 360 2.0 4.0 0.00 0.00 0.00 81 1017.5
20260506090038 18 360 1.0 4.0 0.00 0.00 0.00 81 1017.5
20260506085524 18 0 0.0 2.0 0.00 0.00 0.00 80 1017.5
20260506085024 18 360 1.0 2.0 0.00 0.00 0.00 80 1017.6
20260506084542 18 360 1.0 3.0 0.00 0.00 0.00 78 1017.6
20260506084024 19 0 1.0 3.0 0.00 0.00 0.00 80 1017.6
20260506083524 19 360 1.0 4.0 0.00 0.00 0.00 78 1017.6
20260506083038 19 360 1.0 4.0 0.00 0.00 0.00 78 1017.6
20260506082530 20 360 2.0 4.0 0.00 0.00 0.00 78 1017.5
20260506082027 20 360 2.0 4.0 0.00 0.00 0.00 79 1017.6
20260506081544 20 360 2.0 4.0 0.00 0.00 0.00 79 1017.6
20260506081025 20 360 2.0 4.0 0.00 0.00 0.00 79 1017.6
20260506080527 20 360 0.0 3.0 0.00 0.00 0.00 79 1017.6
20260506073525 20 360 1.0 3.0 0.00 0.00 0.00 76 1017.8
20260506073040 21 360 1.0 3.0 0.00 0.00 0.00 76 1017.8
20260506072527 21 360 1.0 3.0 0.00 0.00 0.00 78 1017.9
20260506072024 21 360 1.0 3.0 0.00 0.00 0.00 78 1017.9
20260506071542 21 360 2.0 3.0 0.00 0.00 0.00 78 1018.0
20260506071024 21 360 1.0 4.0 0.00 0.00 0.00 79 1017.9
20260506070524 20 360 2.0 4.0 0.00 0.00 0.00 79 1017.9
20260506062024 21 360 1.0 3.0 0.00 0.00 0.00 78 1017.9
20260506061539 21 360 1.0 3.0 0.00 0.00 0.00 76 1017.9
20260506061027 22 360 1.0 3.0 0.00 0.00 0.00 75 1017.8
20260506060527 22 360 2.0 3.0 0.00 0.00 0.00 76 1017.9
20260506051024 24 360 1.0 4.0 0.00 0.00 0.00 72 1017.7
20260506050524 25 360 2.0 4.0 0.00 0.00 0.00 71 1017.6
20260506045025 26 360 2.0 4.0 0.00 0.00 0.00 70 1017.6
20260506044542 26 360 2.0 4.0 0.00 0.00 0.00 69 1017.6
20260506044023 26 360 2.0 4.0 0.00 0.00 0.00 69 1017.5
20260506043524 27 360 2.0 3.0 0.00 0.00 0.00 70 1017.5
20260506043042 27 360 1.0 3.0 0.00 0.00 0.00 70 1017.5
20260506042524 27 360 1.0 3.0 0.00 0.00 0.00 70 1017.6
20260506042025 28 0 0.0 3.0 0.00 0.00 0.00 70 1017.6
20260506041539 29 360 2.0 3.0 0.00 0.00 0.00 68 1017.6
20260506041025 30 360 0.0 2.0 0.00 0.00 0.00 65 1017.5
20260506040529 30 0 0.0 0.0 0.00 0.00 0.00 63 1017.5
20260506040044 31 0 0.0 0.0 0.00 0.00 0.00 61 1017.6
20260506035525 31 0 0.0 0.0 0.00 0.00 0.00 60 1017.5
20260506035025 32 0 0.0 0.0 0.00 0.00 0.00 58 1017.5
20260506034538 32 0 0.0 1.0 0.00 0.00 0.00 58 1017.5
20260506034024 33 0 0.0 3.0 0.00 0.00 0.00 57 1017.6
20260506033525 34 0 0.0 5.0 0.00 0.00 0.00 56 1017.5
20260506033037 35 360 1.0 8.0 0.00 0.00 0.00 53 1017.4
20260506032523 35 360 3.0 8.0 0.00 0.00 0.00 51 1017.3
20260506032024 36 360 4.0 8.0 0.00 0.00 0.00 50 1017.3
20260506031548 36 360 4.0 9.0 0.00 0.00 0.00 51 1017.3
20260506031025 36 360 4.0 9.0 0.00 0.00 0.00 52 1017.2
20260506030524 35 360 2.0 5.0 0.00 0.00 0.00 54 1017.0
20260506030040 35 360 1.0 3.0 0.00 0.00 0.00 56 1017.0
20260506025525 36 360 1.0 4.0 0.00 0.00 0.00 55 1016.9
20260506025028 36 98 1.0 11.0 0.00 0.00 0.00 55 1016.7
20260506024546 37 98 3.0 11.0 0.00 0.00 0.00 51 1016.7
20260506024024 37 86 5.0 10.0 0.00 0.00 0.00 50 1016.4
20260506023526 37 100 5.0 10.0 0.00 0.00 0.00 49 1016.4
20260506023038 37 124 5.0 10.0 0.00 0.00 0.00 49 1016.2
20260506022528 37 360 4.0 11.0 0.00 0.00 0.00 48 1016.2
20260506022023 37 360 5.0 11.0 0.00 0.00 0.00 49 1016.1
20260506021536 37 360 5.0 11.0 0.00 0.00 0.00 50 1016.0
20260506021026 37 360 5.0 11.0 0.00 0.00 0.00 50 1015.9
20260506020525 38 106 4.0 11.0 0.00 0.00 0.00 50 1015.8
20260506020040 38 360 6.0 12.0 0.00 0.00 0.00 48 1015.8
20260506015527 38 360 6.0 14.0 0.00 0.00 0.00 47 1015.7
20260506015025 38 360 8.0 15.0 0.00 0.00 0.00 48 1015.7
20260506014541 38 360 9.0 15.0 0.00 0.00 0.00 47 1015.7
20260506014024 38 360 8.0 14.0 0.00 0.00 0.00 47 1015.6
20260506013525 38 360 8.0 12.0 0.00 0.00 0.00 48 1015.5
20260506013038 38 360 5.0 12.0 0.00 0.00 0.00 49 1015.6
20260506012523 38 360 6.0 12.0 0.00 0.00 0.00 49 1015.6
20260506012026 38 99 7.0 16.0 0.00 0.00 0.00 48 1015.5
20260506011543 39 105 7.0 16.0 0.00 0.00 0.00 48 1015.5
20260506011025 39 98 10.0 17.0 0.00 0.00 0.00 47 1015.4
20260506010525 40 118 10.0 17.0 0.00 0.00 0.00 47 1015.3
20260506010041 40 106 10.0 15.0 0.00 0.00 0.00 47 1015.2
20260506005525 40 360 9.0 15.0 0.00 0.00 0.00 48 1015.2
20260506005027 40 360 8.0 14.0 0.00 0.00 0.00 49 1015.1
20260506004540 40 360 5.0 17.0 0.00 0.00 0.00 50 1015.0
20260506004028 40 360 10.0 17.0 0.00 0.00 0.00 49 1014.9
20260506003529 40 360 11.0 17.0 0.00 0.00 0.00 47 1014.9
20260506003040 41 360 8.0 20.0 0.00 0.00 0.00 48 1014.9
20260506002527 41 360 10.0 20.0 0.00 0.00 0.00 48 1014.7
20260506002027 41 360 12.0 20.0 0.00 0.00 0.00 48 1014.7
20260506001540 40 116 10.0 17.0 0.00 0.00 0.00 48 1014.6
20260506001028 40 360 9.0 19.0 0.00 0.00 0.00 49 1014.6
20260506000528 41 360 11.0 19.0 0.00 0.00 0.00 48 1014.5
20260506000037 41 360 11.0 18.0 0.00 0.00 0.00 49 1014.4
20260505235530 42 360 9.0 22.0 0.00 0.00 0.00 50 1014.4
20260505235030 44 360 13.0 22.0 0.00 0.00 0.00 46 1014.3
20260505234546 45 360 10.0 18.0 0.00 0.00 0.00 47 1014.2
20260505234031 45 360 10.0 21.0 0.00 0.00 0.00 47 1014.1
20260505233527 44 360 12.0 21.0 0.00 0.00 0.00 48 1014.1
20260505233038 43 360 10.0 18.0 0.00 0.00 0.00 49 1014.1
20260505232527 43 360 9.0 18.0 0.00 0.00 0.00 50 1014.1
20260505232027 44 360 7.0 19.0 0.00 0.00 0.00 51 1014.2
20260505231549 44 360 11.0 19.0 0.00 0.00 0.00 58 1014.1
20260505231027 43 360 7.0 15.0 0.00 0.00 0.00 60 1014.1
20260505230527 42 360 7.0 17.0 0.00 0.00 0.00 61 1014.2
20260505230050 42 360 8.0 17.0 0.00 0.00 0.00 58 1014.1
20260505225528 41 360 10.0 17.0 0.00 0.00 0.00 60 1014.1
20260505225030 40 96 9.0 17.0 0.00 0.00 0.00 56 1014.0
20260505224540 39 92 4.0 19.0 0.00 0.00 0.00 60 1014.0
20260505224027 39 112 10.0 19.0 0.00 0.00 0.00 58 1014.0
20260505223530 40 85 13.0 19.0 0.00 0.00 0.00 59 1014.0
20260505223037 41 33 9.0 21.0 0.00 0.00 0.00 61 1014.0
20260505222527 41 87 10.0 21.0 0.00 0.00 0.00 57 1013.9
20260505222028 42 85 12.0 20.0 0.00 0.00 0.00 53 1014.0
20260505221539 43 109 10.0 20.0 0.00 0.00 0.00 55 1013.9
20260505221034 43 65 9.0 20.0 0.00 0.00 0.00 62 1013.8
20260505220528 42 92 9.0 24.0 0.00 0.00 0.00 59 1014.1
20260505220044 41 74 8.0 24.0 0.00 0.00 0.00 62 1014.1
20260505215529 41 117 7.0 19.0 0.00 0.00 0.00 55 1014.2
20260505215028 41 82 9.0 19.0 0.00 0.00 0.00 53 1014.2
20260505214543 41 46 12.0 22.0 0.00 0.00 0.00 51 1014.0
20260505214028 42 107 10.0 22.0 0.00 0.00 0.00 51 1014.0
20260505213527 42 75 13.0 20.0 0.00 0.00 0.00 49 1014.0
20260505213050 42 108 12.0 20.0 0.00 0.00 0.00 49 1014.0
20260505212526 41 117 8.0 19.0 0.00 0.00 0.00 52 1014.0
20260505212028 41 112 12.0 21.0 0.00 0.00 0.00 51 1014.0
20260505211537 41 95 14.0 21.0 0.00 0.00 0.00 52 1014.0
20260505211028 42 77 14.0 21.0 0.00 0.00 0.00 52 1013.9
20260505210527 43 115 11.0 20.0 0.00 0.00 0.00 49 1013.8
20260505210038 44 99 11.0 17.0 0.00 0.00 0.00 48 1013.9
20260505205528 44 119 7.0 15.0 0.00 0.00 0.00 50 1013.9
20260505205028 45 91 7.0 20.0 0.00 0.00 0.00 52 1013.9
20260505204543 45 78 11.0 21.0 0.00 0.00 0.00 53 1014.0
20260505204028 44 53 13.0 24.0 0.00 0.00 0.00 53 1014.0
20260505203528 44 88 15.0 24.0 0.00 0.00 0.00 52 1013.9
20260505203041 44 126 13.0 24.0 0.00 0.00 0.00 48 1013.8
20260505202525 43 101 10.0 24.0 0.00 0.00 0.00 48 1013.8
20260505202028 44 105 15.0 24.0 0.00 0.00 0.00 48 1013.9
20260505201546 45 64 14.0 25.0 0.00 0.00 0.00 46 1013.7
20260505201031 45 77 13.0 25.0 0.00 0.00 0.00 46 1013.8
20260505200528 46 110 13.0 23.0 0.00 0.00 0.00 49 1013.8
20260505200040 46 97 13.0 23.0 0.00 0.00 0.00 48 1013.8
20260505195531 45 110 10.0 21.0 0.00 0.00 0.00 48 1013.8
20260505195027 45 104 12.0 21.0 0.00 0.00 0.00 49 1013.8
20260505194540 45 105 12.0 23.0 0.00 0.00 0.00 49 1013.7
20260505194028 46 120 12.0 23.0 0.00 0.00 0.00 50 1013.7
20260505193527 46 114 13.0 24.0 0.00 0.00 0.00 47 1013.7
20260505193038 46 99 11.0 27.0 0.00 0.00 0.00 53 1013.6
20260505192530 45 100 14.0 27.0 0.00 0.00 0.00 46 1013.5
20260505192028 46 122 17.0 27.0 0.00 0.00 0.00 46 1013.5
20260505191541 46 101 13.0 25.0 0.00 0.00 0.00 46 1013.6
20260505191031 46 104 13.0 23.0 0.00 0.00 0.00 47 1013.6
20260505190527 46 111 8.0 19.0 0.00 0.00 0.00 47 1013.7
20260505190045 46 122 11.0 20.0 0.00 0.00 0.00 46 1013.8
20260505185528 45 39 11.0 20.0 0.00 0.00 0.00 47 1013.7
20260505185101 45 110 10.0 20.0 0.00 0.00 0.00 48 1013.7
20260505184540 44 110 13.0 20.0 0.00 0.00 0.00 46 1013.8
20260505184027 45 67 10.0 20.0 0.00 0.00 0.00 49 1014.0
20260505183526 44 95 11.0 20.0 0.00 0.00 0.00 45 1014.0
20260505183040 44 97 9.0 21.0 0.00 0.00 0.00 46 1014.1
20260505182530 44 94 12.0 26.0 0.00 0.00 0.00 48 1014.1
20260505182026 44 43 10.0 27.0 0.00 0.00 0.00 48 1014.0
20260505181538 44 111 10.0 27.0 0.00 0.00 0.00 47 1014.2
20260505181027 43 98 15.0 27.0 0.00 0.00 0.00 46 1014.1
20260505180527 44 88 11.0 20.0 0.00 0.00 0.00 48 1014.2
20260505180046 44 94 9.0 24.0 0.00 0.00 0.00 48 1014.3
20260505175529 44 89 15.0 24.0 0.00 0.00 0.00 46 1014.5
20260505175028 45 109 9.0 22.0 0.00 0.00 0.00 47 1014.4
20260505174551 44 100 13.0 22.0 0.00 0.00 0.00 47 1014.4
20260505174027 44 75 13.0 21.0 0.00 0.00 0.00 47 1014.3
20260505173529 44 109 10.0 20.0 0.00 0.00 0.00 50 1014.2
20260505173044 44 57 12.0 22.0 0.00 0.00 0.00 50 1014.3
20260505172526 44 104 11.0 22.0 0.00 0.00 0.00 48 1014.3
20260505172028 43 109 12.0 22.0 0.00 0.00 0.00 49 1014.3
20260505171538 43 74 14.0 23.0 0.00 0.00 0.00 49 1014.4
20260505171029 43 111 13.0 23.0 0.00 0.00 0.00 48 1014.5
20260505170526 43 68 13.0 23.0 0.00 0.00 0.00 48 1014.6
20260505170039 43 88 10.0 23.0 0.00 0.00 0.00 48 1014.6
20260505165528 43 84 13.0 20.0 0.00 0.00 0.00 49 1014.7
20260505165025 43 116 10.0 20.0 0.00 0.00 0.00 52 1014.6
20260505164543 43 110 12.0 21.0 0.00 0.00 0.00 51 1014.7
20260505164031 43 114 11.0 22.0 0.00 0.00 0.00 48 1014.7
20260505163529 42 83 12.0 24.0 0.00 0.00 0.00 50 1014.7
20260505163042 43 117 12.0 24.0 0.00 0.00 0.00 50 1014.9
20260505162526 42 96 14.0 23.0 0.00 0.00 0.00 49 1014.7
20260505162028 42 74 15.0 26.0 0.00 0.00 0.00 48 1014.7
20260505161539 42 88 10.0 26.0 0.00 0.00 0.00 49 1014.7
20260505161025 42 75 16.0 26.0 0.00 0.00 0.00 49 1014.9
20260505160527 41 109 15.0 24.0 0.00 0.00 0.00 49 1015.0